Location: Cincinnati Observatory Center
(39.1389°N, 84.4225°W)
Time: 11:10:57
(UTC-05:00)

Hubble Space Telescope - Visible Passes

Search period start: 28 January 2015 00:00
Search period end: 07 February 2015 00:00
Orbit: 544 x 548 km, 28.5° (Epoch: 27 January)

Date Brightness Start Highest point End Pass type
(mag) Time Alt. Az. Time Alt. Az. Time Alt. Az.
28 Jan 3.1 20:00:27 10° SSW 20:02:01 14° S 20:02:01 14° S visible
29 Jan 2.9 19:52:05 10° SSW 19:54:35 17° S 19:54:35 17° S visible
30 Jan 2.8 19:43:50 10° SW 19:46:40 18° S 19:47:07 18° SSE visible
31 Jan 2.7 19:35:38 10° SW 19:38:35 19° S 19:39:40 17° SSE visible
01 Feb 2.8 19:27:31 10° SW 19:30:29 19° S 19:32:14 15° SSE visible
02 Feb 2.9 19:19:26 10° SW 19:22:23 19° S 19:24:49 12° SE visible
03 Feb 3.0 19:11:24 10° SW 19:14:16 18° S 19:17:07 10° SE visible
04 Feb 3.2 19:03:26 10° SW 19:06:09 17° S 19:08:50 10° SSE visible
05 Feb 3.3 18:55:34 10° SW 18:58:01 15° S 19:00:28 10° SSE visible
06 Feb 3.4 18:47:48 10° SW 18:49:54 13° SSW 18:51:56 10° SSE visible
